Location: Sungai Dangang
(2.7500°N, 113.8333°E)
Time: 18:12:34
(UTC+00:00)

Ariane H10+ - Pass Details

Date: 30 September 2021
Orbit: 237 x 7755 km, 6.8° (Epoch: 21 October)

Event Time Altitude Azimuth Distance (km) Brightness Sun altitude
Rises 11:49:07 0° 261° (W) 3,241 6.7 -23.7°
Reaches altitude 10° 11:52:54 10° 243° (WSW) 1,571 4.5 -24.7°
Enters shadow 11:54:18 16° 221° (SW) 1,067 3.3 -25.0°
